COMS 1

导读

COMS 1又名“千里眼1号”,是韩国自主研发的首颗地球静止轨道卫星,于2010年6月26日发射升空,定点于东经128.2°。它搭载气象成像仪、海洋水色成像仪和通信载荷,可同时开展气象观测、海洋环境监测和通信技术试验,将韩国天气预报间隔从30分钟缩短至8-15分钟,也让韩国成为首个拥有地球同步轨道海事观测卫星的国家,设计寿命10年,服务周边区域气象与海洋研究。

基本信息
目录编号:
36744
目录名称:
COMS 1
国际标识:
2010-032A
轨道中心:
EARTH
卫星名称:
COMS 1
卫星全名:
--
卫星状态:
在轨 (已飞行5839 天)
发射日期:
2010-06-26 UTC
国别 :
韩国 (KR)
星等 :
--
轨道信息
数据来源 国际轨道数据 AOE轨道数据
星历时间 2026-06-20T10:57:22+0800
1天前
查看轨道信息
2026-06-21T04:00:00+0800
22小时前
查看轨道信息
半长轴 42478.401km 42478.372km
偏心率 0.001165 0.0011776
轨道倾角 4.814° 4.815°
近地点辐角 12.321° 12.081°
升交点赤经 75.322° 75.314°
平近点角 286.761° 180.534°
近地点 36050.776km 36050.212km
远地点 36149.752km 36150.258km
周期 1452.152分钟 1452.150分钟
每日圈数 0.991632 0.991633
详细信息
使用方式:
暂无
2D轨道图
3D轨道图
轨道高度分析图
轨道倾角分析图
轨道综合分析图
查看轨道综合分析图